Time[GMT],gps_lat[degrees_north](-3m),gps_lon[degrees_west](-3m),gps_2_lat[degrees_north](-3m),gps_2_lon[degrees_west](-3m)
2016-07-24 21:00,42.324317932,-65.908615112,42.34,-65.89
2016-07-24 22:00,42.324199677,-65.908546448,42.32,-65.91
2016-07-24 23:00,42.324214935,-65.908653259,42.32,-65.91
2016-07-25 00:00,42.324333191,-65.908966064,42.32,-65.91
2016-07-25 01:00,42.324481964,-65.909446716,42.32,-65.91
2016-07-25 02:00,42.324684143,-65.909835815,42.32,-65.91
2016-07-25 03:00,42.324817657,-65.910369873,42.32,-65.91
2016-07-25 04:00,42.325149536,-65.910369873,42.32,-65.91
2016-07-25 05:00,42.325267792,-65.910003662,42.33,-65.91
2016-07-25 06:00,42.325035095,-65.909553528,42.33,-65.91
2016-07-25 07:00,42.324848175,-65.909164429,42.33,-65.91
2016-07-25 08:00,42.324649811,-65.908950806,42.32,-65.91
2016-07-25 09:00,42.324466705,-65.908546448,42.32,-65.91
2016-07-25 10:00,42.324268341,-65.908432007,42.32,-65.91
2016-07-25 11:00,42.324298859,-65.908386230,42.32,-65.91
2016-07-25 12:00,42.324401855,-65.908599854,42.32,-65.91
2016-07-25 13:00,42.324501038,-65.908950806,42.32,-65.91
2016-07-25 14:00,42.324684143,-65.909568787,42.32,-65.91
2016-07-25 15:00,42.324783325,-65.910003662,42.32,-65.91
2016-07-25 16:00,42.325035095,-65.910316467,,
2016-07-25 17:00,42.325183868,-65.910148621,42.32,-65.91
2016-07-25 18:00,42.325115204,-65.909919739,42.33,-65.91
2016-07-25 19:00,42.324916840,-65.909469604,42.32,-65.91
2016-07-25 20:00,42.324783325,-65.909103394,42.32,-65.91
2016-07-25 21:00,42.324615479,-65.908851624,42.32,-65.91
2016-07-25 22:00,42.324451447,-65.908599854,42.32,-65.91
2016-07-25 23:00,42.324382782,-65.908584595,42.32,-65.91
2016-07-26 00:00,42.324432373,-65.908767700,42.32,-65.91
2016-07-26 01:00,42.324531555,-65.908966064,,
2016-07-26 02:00,42.324733734,-65.909530640,42.32,-65.91
2016-07-26 03:00,42.324867249,-65.909835815,42.32,-65.91
2016-07-26 04:00,42.324981689,-65.910186768,42.32,-65.91
2016-07-26 05:00,42.325149536,-65.910148621,42.32,-65.91
2016-07-26 06:00,42.325134277,-65.909812927,42.33,-65.91
2016-07-26 07:00,42.325000763,-65.909416199,42.33,-65.91
2016-07-26 08:00,42.324832916,-65.909217834,42.32,-65.91
2016-07-26 09:00,42.324733734,-65.908866882,42.32,-65.91
2016-07-26 10:00,42.324634552,-65.908515930,42.32,-65.91
2016-07-26 11:00,42.324466705,-65.908416748,42.32,-65.91
2016-07-26 12:00,42.324432373,-65.908500671,42.32,-65.91
2016-07-26 13:00,42.324550629,-65.908683777,42.32,-65.91
2016-07-26 14:00,42.324768066,-65.909049988,42.32,-65.91
2016-07-26 15:00,42.324783325,-65.909698486,42.32,-65.91
2016-07-26 16:00,42.324798584,-65.910079956,42.32,-65.91
2016-07-26 17:00,42.325016022,-65.910064697,42.32,-65.91
2016-07-26 18:00,42.325084686,-65.910064697,,
2016-07-26 19:00,42.324966431,-65.909683228,42.33,-65.91
2016-07-26 20:00,42.324817657,-65.909431458,,
2016-07-26 21:00,42.324565887,-65.909202576,42.32,-65.91
2016-07-26 22:00,42.324501038,-65.908966064,42.32,-65.91
2016-07-26 23:00,42.324348450,-65.908683777,42.32,-65.91
2016-07-27 00:00,42.324249268,-65.908699036,42.32,-65.91
2016-07-27 01:00,42.324283600,-65.908920288,,
2016-07-27 02:00,42.324401855,-65.909202576,42.32,-65.91
2016-07-27 03:00,42.324615479,-65.909553528,42.32,-65.91
2016-07-27 04:00,42.324748993,-65.909919739,42.32,-65.91
2016-07-27 05:00,42.324901581,-65.910163879,,
2016-07-27 06:00,42.325050354,-65.910079956,42.32,-65.91
2016-07-27 07:00,42.325050354,-65.909751892,42.33,-65.91
2016-07-27 08:00,42.324916840,-65.909446716,42.33,-65.91
2016-07-27 09:00,42.324768066,-65.909233093,42.32,-65.91
2016-07-27 10:00,42.324550629,-65.909034729,42.32,-65.91
2016-07-27 11:00,42.324565887,-65.908531189,42.32,-65.91
2016-07-27 12:00,42.324298859,-65.908432007,42.32,-65.91
2016-07-27 13:00,42.324268341,-65.908432007,42.32,-65.91
2016-07-27 14:00,42.324298859,-65.908813477,42.32,-65.91
2016-07-27 15:00,42.324432373,-65.909217834,42.32,-65.91
2016-07-27 16:00,42.324584961,-65.909698486,42.32,-65.91
2016-07-27 17:00,42.324718475,-65.910064697,42.32,-65.91
2016-07-27 18:00,42.324867249,-65.910430908,42.32,-65.91
2016-07-27 19:00,42.324901581,-65.910346985,42.32,-65.91
2016-07-27 20:00,42.324882507,-65.909950256,42.32,-65.91
2016-07-27 21:00,42.324748993,-65.909553528,42.32,-65.91
2016-07-27 22:00,42.324699402,-65.909164429,42.32,-65.91
2016-07-27 23:00,42.324584961,-65.908897400,42.32,-65.91
2016-07-28 00:00,42.324466705,-65.908569336,,
2016-07-28 01:00,42.324298859,-65.908386230,42.32,-65.91
2016-07-28 02:00,42.324268341,-65.908683777,42.32,-65.91
2016-07-28 03:00,42.324367523,-65.908981323,42.32,-65.91
2016-07-28 04:00,42.324466705,-65.909484863,42.32,-65.91
2016-07-28 05:00,42.324649811,-65.909835815,42.32,-65.91
2016-07-28 06:00,42.324684143,-65.910217285,42.32,-65.91
2016-07-28 07:00,42.324882507,-65.910247803,42.32,-65.91
2016-07-28 08:00,42.325065613,-65.910148621,,
2016-07-28 09:00,42.325084686,-65.909553528,42.33,-65.91
2016-07-28 10:00,42.324932098,-65.909118652,,
2016-07-28 11:00,42.324817657,-65.908630371,42.32,-65.91
2016-07-28 12:00,42.324565887,-65.908515930,42.32,-65.91
2016-07-28 13:00,42.324382782,-65.908386230,42.32,-65.91
2016-07-28 14:00,42.324298859,-65.908500671,42.32,-65.91
2016-07-28 15:00,42.324348450,-65.908836365,42.32,-65.91
2016-07-28 16:00,42.324432373,-65.909248352,42.32,-65.91
2016-07-28 17:00,42.324649811,-65.909698486,42.32,-65.91
2016-07-28 18:00,42.324768066,-65.909851074,42.32,-65.91
2016-07-28 19:00,42.324882507,-65.910064697,42.32,-65.91
2016-07-28 20:00,42.325084686,-65.910202026,42.32,-65.91
2016-07-28 21:00,42.325099945,-65.909835815,42.33,-65.91
2016-07-28 22:00,42.324951172,-65.909385681,42.33,-65.91
2016-07-28 23:00,42.324848175,-65.909103394,42.32,-65.91
2016-07-29 00:00,42.324649811,-65.908752441,42.32,-65.91
2016-07-29 01:00,42.324367523,-65.908615112,42.32,-65.91
2016-07-29 02:00,42.324298859,-65.908599854,42.32,-65.91
2016-07-29 03:00,42.324298859,-65.908699036,42.32,-65.91
2016-07-29 04:00,42.324333191,-65.908966064,,
2016-07-29 05:00,42.324501038,-65.909370422,,
2016-07-29 06:00,42.324684143,-65.909713745,42.32,-65.91
2016-07-29 07:00,42.324882507,-65.910102844,42.32,-65.91
2016-07-29 08:00,42.325199127,-65.910263062,42.32,-65.91
2016-07-29 09:00,42.325298309,-65.910003662,42.33,-65.91
2016-07-29 10:00,42.325084686,-65.909584045,42.33,-65.91
2016-07-29 11:00,42.324848175,-65.909317017,42.33,-65.91
2016-07-29 12:00,42.324768066,-65.908935547,42.32,-65.91
2016-07-29 13:00,42.324516296,-65.908752441,42.32,-65.91
2016-07-29 14:00,42.324333191,-65.908546448,,
2016-07-29 15:00,42.324268341,-65.908615112,42.32,-65.91
2016-07-29 16:00,42.324234009,-65.908767700,,
2016-07-29 17:00,42.324451447,-65.909164429,,
2016-07-29 18:00,42.324665070,-65.909667969,42.32,-65.91
2016-07-29 19:00,42.324798584,-65.910064697,42.32,-65.91
2016-07-29 20:00,42.325065613,-65.910331726,42.32,-65.91
2016-07-29 21:00,42.325233459,-65.910133362,42.33,-65.91
2016-07-29 22:00,42.325199127,-65.909812927,42.33,-65.91
2016-07-29 23:00,42.324981689,-65.909515381,42.33,-65.91
2016-07-30 00:00,42.324748993,-65.909217834,,
2016-07-30 01:00,42.324565887,-65.908882141,42.32,-65.91
2016-07-30 02:00,42.324382782,-65.908729553,42.32,-65.91
2016-07-30 03:00,42.324214935,-65.908348083,42.32,-65.91
2016-07-30 04:00,42.324134827,-65.908500671,42.32,-65.91
2016-07-30 05:00,42.324165344,-65.909080505,42.32,-65.91
2016-07-30 06:00,42.324417114,-65.909530640,42.32,-65.91
2016-07-30 07:00,42.324600220,-65.909835815,42.32,-65.91
2016-07-30 08:00,42.324882507,-65.910163879,42.32,-65.91
2016-07-30 09:00,42.325248718,-65.910202026,,
2016-07-30 10:00,42.325298309,-65.909934998,42.33,-65.91
2016-07-30 11:00,42.325134277,-65.909599304,42.33,-65.91
2016-07-30 12:00,42.324848175,-65.909233093,42.33,-65.91
2016-07-30 13:00,42.324584961,-65.908966064,42.32,-65.91
2016-07-30 14:00,42.324501038,-65.908500671,42.32,-65.91
2016-07-30 15:00,42.324268341,-65.908180237,42.32,-65.91
2016-07-30 16:00,42.324150085,-65.908233643,42.32,-65.91
2016-07-30 17:00,42.324184418,-65.908500671,42.32,-65.91
2016-07-30 18:00,42.324268341,-65.908996582,,
2016-07-30 19:00,42.324401855,-65.909667969,42.32,-65.91
2016-07-30 20:00,42.324684143,-65.910049438,42.32,-65.91
2016-07-30 21:00,42.324916840,-65.910369873,42.32,-65.91
2016-07-30 22:00,42.325218201,-65.910301208,42.32,-65.91
2016-07-30 23:00,42.325134277,-65.909950256,42.33,-65.91
2016-07-31 00:00,42.324901581,-65.909431458,42.33,-65.91
2016-07-31 01:00,42.324649811,-65.909019470,42.32,-65.91
2016-07-31 02:00,42.324684143,-65.908683777,42.32,-65.91
2016-07-31 03:00,42.324481964,-65.908432007,42.32,-65.91
2016-07-31 04:00,42.324333191,-65.908218384,,
2016-07-31 05:00,42.324214935,-65.908287048,42.32,-65.91
2016-07-31 06:00,42.324348450,-65.908630371,,
2016-07-31 07:00,42.324451447,-65.909065247,42.32,-65.91
2016-07-31 08:00,42.324665070,-65.909713745,42.32,-65.91
2016-07-31 09:00,42.324848175,-65.910133362,42.32,-65.91
2016-07-31 10:00,42.325084686,-65.910285950,42.32,-65.91
2016-07-31 11:00,42.325199127,-65.910064697,42.33,-65.91
2016-07-31 12:00,42.324981689,-65.909683228,42.33,-65.91
2016-07-31 13:00,42.324783325,-65.909332275,,
2016-07-31 14:00,42.324665070,-65.908996582,42.32,-65.91
2016-07-31 15:00,42.324516296,-65.908729553,42.32,-65.91
2016-07-31 16:00,42.324417114,-65.908500671,42.32,-65.91
2016-07-31 17:00,42.324317932,-65.908515930,42.32,-65.91
2016-07-31 18:00,42.324298859,-65.908752441,,
2016-07-31 19:00,42.324348450,-65.909332275,42.32,-65.91
2016-07-31 20:00,42.324615479,-65.909797668,42.32,-65.91
2016-07-31 21:00,42.324699402,-65.910247803,42.32,-65.91
2016-07-31 22:00,42.325016022,-65.910552979,42.32,-65.91
2016-07-31 23:00,42.325084686,-65.910598755,42.32,-65.91
2016-08-01 00:00,42.325183868,-65.910247803,42.33,-65.91
2016-08-01 01:00,42.324951172,-65.909553528,42.33,-65.91
2016-08-01 02:00,42.324966431,-65.909103394,42.33,-65.91
2016-08-01 03:00,42.324718475,-65.908515930,42.32,-65.91
2016-08-01 04:00,42.324417114,-65.908180237,42.32,-65.91
2016-08-01 05:00,42.324199677,-65.908149719,42.32,-65.91
2016-08-01 06:00,42.324165344,-65.908416748,,
2016-08-01 07:00,42.324214935,-65.908996582,42.32,-65.91
2016-08-01 08:00,42.324417114,-65.909553528,,
2016-08-01 09:00,42.324615479,-65.909851074,42.32,-65.91
2016-08-01 10:00,42.324817657,-65.910400391,42.32,-65.91
2016-08-01 11:00,42.325050354,-65.910530090,42.32,-65.91
2016-08-01 12:00,42.325199127,-65.910331726,42.33,-65.91
2016-08-01 13:00,42.324981689,-65.909934998,,
2016-08-01 14:00,42.324882507,-65.909431458,42.33,-65.91
2016-08-01 15:00,42.324882507,-65.908714294,42.32,-65.91
2016-08-01 16:00,42.324516296,-65.908363342,42.32,-65.91
2016-08-01 17:00,42.324317932,-65.908218384,42.32,-65.91
2016-08-01 18:00,42.324134827,-65.908287048,,
2016-08-01 19:00,42.324016571,-65.908653259,42.32,-65.91
2016-08-01 20:00,42.324100494,-65.909248352,42.32,-65.91
2016-08-01 21:00,42.324348450,-65.909851074,42.32,-65.91
2016-08-01 22:00,42.324466705,-65.910530090,42.32,-65.91
2016-08-01 23:00,42.324951172,-65.910736084,42.32,-65.91
2016-08-02 00:00,42.325199127,-65.910453796,42.33,-65.91
2016-08-02 01:00,42.325248718,-65.910064697,42.33,-65.91
2016-08-02 02:00,42.325065613,-65.909431458,42.33,-65.91
2016-08-02 03:00,42.324966431,-65.908882141,42.33,-65.91
2016-08-02 04:00,42.324615479,-65.908500671,42.32,-65.91
2016-08-02 05:00,42.324348450,-65.908180237,42.32,-65.91
2016-08-02 06:00,42.324199677,-65.908180237,42.32,-65.91
2016-08-02 07:00,42.324115753,-65.908531189,42.32,-65.91
2016-08-02 08:00,42.324085236,-65.908851624,42.32,-65.91
2016-08-02 09:00,42.324184418,-65.909370422,42.32,-65.91
2016-08-02 10:00,42.324501038,-65.909919739,42.32,-65.91
2016-08-02 11:00,42.324733734,-65.910552979,42.32,-65.91
2016-08-02 12:00,42.325000763,-65.910636902,42.32,-65.90
2016-08-02 13:00,42.325199127,-65.910453796,42.32,-65.91
2016-08-02 14:00,42.325065613,-65.909965515,42.33,-65.91
2016-08-02 15:00,42.325065613,-65.909515381,42.33,-65.91
2016-08-02 16:00,42.324768066,-65.908836365,42.33,-65.91
2016-08-02 17:00,42.324466705,-65.908500671,42.32,-65.91
2016-08-02 18:00,42.324249268,-65.908287048,42.32,-65.91
2016-08-02 19:00,42.324050903,-65.908386230,42.32,-65.91
2016-08-02 20:00,42.324001312,-65.908950806,42.32,-65.91
2016-08-02 21:00,42.324165344,-65.909515381,42.32,-65.91
2016-08-02 22:00,42.324417114,-65.910049438,,
2016-08-02 23:00,42.324481964,-65.910682678,42.32,-65.91
2016-08-03 00:00,42.324882507,-65.910820007,42.32,-65.91
2016-08-03 01:00,42.325084686,-65.910568237,42.32,-65.91
2016-08-03 02:00,42.325164795,-65.910018921,42.33,-65.91
2016-08-03 03:00,42.324882507,-65.909568787,42.33,-65.91
2016-08-03 04:00,42.324665070,-65.908996582,42.32,-65.91
2016-08-03 05:00,42.324451447,-65.908546448,42.32,-65.91
2016-08-03 06:00,42.324184418,-65.908218384,42.32,-65.91
2016-08-03 07:00,42.324001312,-65.908218384,42.32,-65.91
2016-08-03 08:00,42.323951721,-65.908569336,42.32,-65.91
2016-08-03 09:00,42.324031830,-65.909202576,42.32,-65.91
2016-08-03 10:00,42.324283600,-65.909736633,42.32,-65.91
2016-08-03 11:00,42.324550629,-65.910247803,42.32,-65.91
2016-08-03 12:00,42.324798584,-65.910781860,42.32,-65.91
2016-08-03 13:00,42.324966431,-65.910583496,42.32,-65.91
2016-08-03 14:00,42.325065613,-65.910217285,42.32,-65.91
2016-08-03 15:00,42.324901581,-65.909698486,42.33,-65.91
2016-08-03 16:00,42.324798584,-65.909164429,42.32,-65.91
2016-08-03 17:00,42.324615479,-65.908767700,,
2016-08-03 18:00,42.324283600,-65.908485413,42.32,-65.91
2016-08-03 19:00,42.324066162,-65.908401489,42.32,-65.91
2016-08-03 20:00,42.323883057,-65.908599854,42.32,-65.91
2016-08-03 21:00,42.324031830,-65.909049988,42.32,-65.91
2016-08-03 22:00,42.324234009,-65.909614563,42.32,-65.91
2016-08-03 23:00,42.324481964,-65.910217285,42.32,-65.91
2016-08-04 00:00,42.324699402,-65.910636902,42.32,-65.91
2016-08-04 01:00,42.324951172,-65.910530090,42.32,-65.91
2016-08-04 02:00,42.325084686,-65.910301208,,
2016-08-04 03:00,42.325183868,-65.909698486,42.32,-65.91
2016-08-04 04:00,42.324901581,-65.909317017,42.33,-65.91
2016-08-04 05:00,42.324699402,-65.908851624,,
2016-08-04 06:00,42.324417114,-65.908386230,42.32,-65.91
2016-08-04 07:00,42.324234009,-65.908203125,42.32,-65.91
2016-08-04 08:00,42.324050903,-65.908386230,42.32,-65.91
2016-08-04 09:00,42.324100494,-65.908714294,42.32,-65.91
2016-08-04 10:00,42.324165344,-65.909217834,42.32,-65.91
2016-08-04 11:00,42.324348450,-65.909835815,42.32,-65.90
2016-08-04 12:00,42.324733734,-65.910285950,42.32,-65.91
2016-08-04 13:00,42.324867249,-65.910514832,42.32,-65.91
2016-08-04 14:00,42.325134277,-65.910568237,42.32,-65.91
2016-08-04 15:00,42.325283051,-65.910133362,42.33,-65.91
2016-08-04 16:00,42.324966431,-65.909652710,42.33,-65.91
2016-08-04 17:00,42.324867249,-65.909301758,42.32,-65.91
2016-08-04 18:00,42.324615479,-65.908767700,42.32,-65.91
2016-08-04 19:00,42.324348450,-65.908363342,42.32,-65.91
2016-08-04 20:00,42.324100494,-65.908470154,42.32,-65.91
2016-08-04 21:00,42.324115753,-65.908767700,,
2016-08-04 22:00,42.324184418,-65.909217834,42.32,-65.91
2016-08-04 23:00,42.324417114,-65.909782410,42.32,-65.91
2016-08-05 00:00,42.324718475,-65.910202026,42.32,-65.91
2016-08-05 01:00,42.324932098,-65.910568237,42.32,-65.91
2016-08-05 02:00,42.325115204,-65.910636902,42.32,-65.91
2016-08-05 03:00,42.325332642,-65.910263062,42.33,-65.91
2016-08-05 04:00,42.325248718,-65.909736633,42.33,-65.91
2016-08-05 05:00,42.325000763,-65.909217834,42.33,-65.91
2016-08-05 06:00,42.324768066,-65.908798218,42.32,-65.90
2016-08-05 07:00,42.324466705,-65.908630371,42.32,-65.91
2016-08-05 08:00,42.324283600,-65.908416748,42.32,-65.91
2016-08-05 09:00,42.324134827,-65.908630371,42.32,-65.91
2016-08-05 10:00,42.324249268,-65.909065247,42.32,-65.91
2016-08-05 11:00,42.324401855,-65.909614563,42.32,-65.91
2016-08-05 12:00,42.324718475,-65.909980774,42.32,-65.91
2016-08-05 13:00,42.324867249,-65.910331726,42.32,-65.91
2016-08-05 14:00,42.325084686,-65.910430908,42.32,-65.91
2016-08-05 15:00,42.325366974,-65.910484314,42.33,-65.91
2016-08-05 16:00,42.325401306,-65.909866333,,
2016-08-05 17:00,42.325183868,-65.909484863,42.33,-65.91
2016-08-05 18:00,42.324951172,-65.908935547,42.33,-65.91
2016-08-05 19:00,42.324615479,-65.908729553,42.33,-65.91
2016-08-05 20:00,42.324382782,-65.908485413,42.32,-65.91
2016-08-05 21:00,42.324150085,-65.908485413,42.32,-65.91
2016-08-05 22:00,42.324150085,-65.908981323,42.32,-65.91
2016-08-05 23:00,42.324298859,-65.909553528,42.32,-65.91
2016-08-06 00:00,42.324615479,-65.909934998,42.32,-65.91
2016-08-06 01:00,42.324848175,-65.910430908,,
2016-08-06 02:00,42.325084686,-65.910514832,42.32,-65.91
2016-08-06 03:00,42.325183868,-65.910469055,42.32,-65.91
2016-08-06 04:00,42.325431824,-65.910301208,42.33,-65.91
2016-08-06 05:00,42.325183868,-65.909698486,42.33,-65.91
2016-08-06 06:00,42.325035095,-65.909049988,42.33,-65.91
2016-08-06 07:00,42.324848175,-65.908752441,42.33,-65.91
2016-08-06 08:00,42.324699402,-65.908317566,42.32,-65.91
2016-08-06 09:00,42.324348450,-65.908081055,42.32,-65.91
2016-08-06 10:00,42.324115753,-65.908363342,42.32,-65.91
2016-08-06 11:00,42.324268341,-65.908714294,42.32,-65.91
2016-08-06 12:00,42.324615479,-65.909332275,42.32,-65.91
2016-08-06 13:00,42.324848175,-65.909851074,42.32,-65.91
2016-08-06 14:00,42.325035095,-65.910316467,42.32,-65.91
2016-08-06 15:00,42.325199127,-65.910301208,42.33,-65.91
2016-08-06 16:00,42.325431824,-65.910148621,42.33,-65.91
2016-08-06 17:00,42.325267792,-65.909667969,42.33,-65.91
2016-08-06 18:00,42.325183868,-65.909149170,42.33,-65.91
2016-08-06 19:00,42.324932098,-65.908729553,42.33,-65.91
2016-08-06 20:00,42.324718475,-65.908584595,,
2016-08-06 21:00,42.324634552,-65.908332825,42.32,-65.91
2016-08-06 22:00,42.324417114,-65.908332825,42.32,-65.91
2016-08-06 23:00,42.324432373,-65.908714294,42.32,-65.91
2016-08-07 00:00,42.324615479,-65.909248352,42.32,-65.91
2016-08-07 01:00,42.324832916,-65.909767151,42.32,-65.91
2016-08-07 02:00,42.325000763,-65.910148621,42.32,-65.91
2016-08-07 03:00,42.325134277,-65.910301208,42.32,-65.91
2016-08-07 04:00,42.325115204,-65.910034180,42.33,-65.91
2016-08-07 05:00,42.325164795,-65.909835815,42.33,-65.91
2016-08-07 06:00,42.324981689,-65.909332275,,
2016-08-07 07:00,42.324817657,-65.909019470,42.33,-65.91
2016-08-07 08:00,42.324550629,-65.908935547,42.32,-65.91
2016-08-07 09:00,42.324432373,-65.908782959,42.32,-65.91
2016-08-07 10:00,42.324333191,-65.908683777,42.32,-65.91
2016-08-07 11:00,42.324283600,-65.908935547,42.32,-65.91
2016-08-07 12:00,42.324401855,-65.909416199,42.32,-65.91
2016-08-07 13:00,42.324565887,-65.909751892,42.32,-65.91
2016-08-07 14:00,42.324798584,-65.910148621,42.32,-65.91
2016-08-07 15:00,42.325016022,-65.910346985,42.32,-65.91
2016-08-07 16:00,42.325267792,-65.910415649,42.32,-65.91
2016-08-07 17:00,42.325267792,-65.909919739,42.33,-65.91
2016-08-07 18:00,42.325164795,-65.909553528,42.33,-65.91
2016-08-07 19:00,42.325000763,-65.908882141,42.33,-65.91
2016-08-07 20:00,42.324615479,-65.908615112,42.32,-65.91
2016-08-07 21:00,42.324451447,-65.908401489,42.32,-65.91
2016-08-07 22:00,42.324234009,-65.908203125,42.32,-65.91
2016-08-07 23:00,42.324085236,-65.908447266,42.32,-65.91
2016-08-08 00:00,42.324150085,-65.908935547,,
2016-08-08 01:00,42.324317932,-65.909400940,42.32,-65.91
2016-08-08 02:00,42.324565887,-65.909950256,42.32,-65.91
2016-08-08 03:00,42.324748993,-65.910453796,42.32,-65.91
2016-08-08 04:00,42.324951172,-65.910530090,42.32,-65.91
2016-08-08 05:00,42.325149536,-65.910400391,42.32,-65.91
2016-08-08 06:00,42.325149536,-65.909934998,42.33,-65.91
2016-08-08 07:00,42.325099945,-65.909332275,42.33,-65.91
2016-08-08 08:00,42.324832916,-65.908836365,42.33,-65.91
2016-08-08 09:00,42.324584961,-65.908500671,42.32,-65.91
2016-08-08 10:00,42.324298859,-65.908332825,,
2016-08-08 11:00,42.324150085,-65.908470154,42.32,-65.91
2016-08-08 12:00,42.324184418,-65.908851624,42.32,-65.91
2016-08-08 13:00,42.324165344,-65.909233093,42.32,-65.91
2016-08-08 14:00,42.324466705,-65.909713745,42.32,-65.91
2016-08-08 15:00,42.324699402,-65.910102844,42.32,-65.91
2016-08-08 16:00,42.325000763,-65.910369873,42.32,-65.91
2016-08-08 17:00,42.325149536,-65.910301208,42.33,-65.91
2016-08-08 18:00,42.325218201,-65.910049438,42.33,-65.91
2016-08-08 19:00,42.324981689,-65.909568787,42.33,-65.91
2016-08-08 20:00,42.324848175,-65.909065247,42.33,-65.91
2016-08-08 21:00,42.324634552,-65.908752441,42.32,-65.91
2016-08-08 22:00,42.324531555,-65.908485413,42.32,-65.91
2016-08-08 23:00,42.324367523,-65.908416748,42.32,-65.91
2016-08-09 00:00,42.324317932,-65.908485413,42.32,-65.91
2016-08-09 01:00,42.324382782,-65.908798218,,
2016-08-09 02:00,42.324615479,-65.909217834,42.32,-65.91
2016-08-09 03:00,42.324768066,-65.909713745,42.32,-65.91
2016-08-09 04:00,42.324916840,-65.910049438,42.32,-65.91
2016-08-09 05:00,42.325050354,-65.910064697,,
2016-08-09 06:00,42.325065613,-65.909851074,42.33,-65.91
2016-08-09 07:00,42.325035095,-65.909530640,42.33,-65.91
2016-08-09 08:00,42.324798584,-65.909149170,42.33,-65.91
2016-08-09 09:00,42.324649811,-65.908897400,42.32,-65.91
2016-08-09 10:00,42.324516296,-65.908752441,42.32,-65.91
2016-08-09 11:00,42.324348450,-65.908683777,42.32,-65.91
2016-08-09 12:00,42.324317932,-65.908897400,42.32,-65.91
2016-08-09 13:00,42.324317932,-65.909133911,42.32,-65.91
2016-08-09 14:00,42.324382782,-65.909515381,,
2016-08-09 15:00,42.324550629,-65.909965515,42.32,-65.91
2016-08-09 16:00,42.324901581,-65.910285950,42.32,-65.91
2016-08-09 17:00,42.325084686,-65.910217285,42.32,-65.91
2016-08-09 18:00,42.325218201,-65.910148621,,
2016-08-09 19:00,42.325084686,-65.909736633,42.33,-65.91
2016-08-09 20:00,42.324882507,-65.909416199,42.33,-65.91
2016-08-09 21:00,42.324733734,-65.908882141,42.32,-65.91
2016-08-09 22:00,42.324634552,-65.908699036,42.32,-65.91
2016-08-09 23:00,42.324466705,-65.908500671,42.32,-65.91
2016-08-10 00:00,42.324317932,-65.908515930,,
2016-08-10 01:00,42.324268341,-65.908851624,42.32,-65.91
2016-08-10 02:00,42.324382782,-65.909164429,42.32,-65.91
2016-08-10 03:00,42.324600220,-65.909652710,42.32,-65.91
2016-08-10 04:00,42.324798584,-65.909980774,42.32,-65.91
2016-08-10 05:00,42.324867249,-65.910232544,42.32,-65.91
2016-08-10 06:00,42.324966431,-65.910186768,,
2016-08-10 07:00,42.324951172,-65.910018921,42.32,-65.91
2016-08-10 08:00,42.324783325,-65.909736633,42.32,-65.91
2016-08-10 09:00,42.324684143,-65.909347534,,
2016-08-10 10:00,42.324615479,-65.909080505,42.32,-65.91
2016-08-10 11:00,42.324531555,-65.909019470,42.32,-65.91
2016-08-10 12:00,42.324584961,-65.908935547,,
2016-08-10 13:00,42.324565887,-65.908920288,,
2016-08-10 14:00,42.324684143,-65.909217834,,
2016-08-10 15:00,42.324748993,-65.909568787,42.32,-65.91
2016-08-10 16:00,42.324916840,-65.909797668,42.32,-65.91
2016-08-10 17:00,42.325065613,-65.910064697,,
2016-08-10 18:00,42.325164795,-65.910118103,,
2016-08-10 19:00,42.325149536,-65.909980774,42.33,-65.91
2016-08-10 20:00,42.325016022,-65.909767151,,
2016-08-10 21:00,42.324867249,-65.909347534,42.33,-65.91
2016-08-10 22:00,42.324848175,-65.908966064,42.32,-65.91
2016-08-10 23:00,42.324649811,-65.908683777,42.32,-65.91
2016-08-11 00:00,42.324481964,-65.908699036,42.32,-65.91
2016-08-11 01:00,42.324516296,-65.908836365,42.32,-65.91
2016-08-11 02:00,42.324531555,-65.909118652,42.32,-65.91
2016-08-11 03:00,42.324665070,-65.909599304,42.32,-65.91
2016-08-11 04:00,42.324832916,-65.909812927,,
2016-08-11 05:00,42.325050354,-65.910003662,42.32,-65.91
2016-08-11 06:00,42.325233459,-65.910148621,42.33,-65.91
2016-08-11 07:00,42.325267792,-65.910018921,42.33,-65.91
2016-08-11 08:00,42.325149536,-65.909797668,,
2016-08-11 09:00,42.325016022,-65.909317017,42.33,-65.91